Year,Month,Day,Hour,Minute,Value (Times are PST for temperature in C)
2018,06,19,00,00,20.50
2018,06,19,00,01,20.40
2018,06,19,00,02,20.40
2018,06,19,00,03,20.40
2018,06,19,00,04,20.50
2018,06,19,00,05,20.50
2018,06,19,00,06,20.50
2018,06,19,00,07,20.40
2018,06,19,00,08,20.40
2018,06,19,00,09,20.40
2018,06,19,00,10,20.40
2018,06,19,00,11,20.40
2018,06,19,00,12,20.40
2018,06,19,00,13,20.40
2018,06,19,00,14,20.40
2018,06,19,00,15,20.40
2018,06,19,00,16,20.40
2018,06,19,00,17,20.40
2018,06,19,00,18,20.40
2018,06,19,00,19,20.40
2018,06,19,00,20,20.40
2018,06,19,00,21,20.40
2018,06,19,00,22,20.40
2018,06,19,00,23,20.40
2018,06,19,00,24,20.40
2018,06,19,00,25,20.40
2018,06,19,00,26,20.40
2018,06,19,00,27,20.40
2018,06,19,00,28,20.40
2018,06,19,00,29,20.40
2018,06,19,00,30,20.40
2018,06,19,00,31,20.40
2018,06,19,00,32,20.40
2018,06,19,00,33,20.40
2018,06,19,00,34,20.30
2018,06,19,00,35,20.40
2018,06,19,00,36,20.40
2018,06,19,00,37,20.40
2018,06,19,00,38,20.40
2018,06,19,00,39,20.40
2018,06,19,00,40,20.40
2018,06,19,00,41,20.40
2018,06,19,00,42,20.50
2018,06,19,00,43,20.50
2018,06,19,00,44,20.40
2018,06,19,00,45,20.40
2018,06,19,00,46,20.40
2018,06,19,00,47,20.40
2018,06,19,00,50,20.40
2018,06,19,00,51,20.40
2018,06,19,00,52,20.50
2018,06,19,00,53,20.50
2018,06,19,00,54,20.50
2018,06,19,00,55,20.50
2018,06,19,00,56,20.50
2018,06,19,00,57,20.50
2018,06,19,00,58,20.50
2018,06,19,00,59,20.50
2018,06,19,01,00,20.50
2018,06,19,01,01,20.50
2018,06,19,01,02,20.60
2018,06,19,01,03,20.60
2018,06,19,01,04,20.60
2018,06,19,01,05,20.60
2018,06,19,01,06,20.60
2018,06,19,01,07,20.60
2018,06,19,01,08,20.60
2018,06,19,01,09,20.60
2018,06,19,01,10,20.60
2018,06,19,01,11,20.60
2018,06,19,01,12,20.60
2018,06,19,01,13,20.60
2018,06,19,01,14,20.60
2018,06,19,01,15,20.60
2018,06,19,01,16,20.60
2018,06,19,01,17,20.60
2018,06,19,01,18,20.60
2018,06,19,01,19,20.60
2018,06,19,01,20,20.60
2018,06,19,01,21,20.60
2018,06,19,01,22,20.70
2018,06,19,01,23,20.70
2018,06,19,01,24,20.60
2018,06,19,01,25,20.60
2018,06,19,01,26,20.60
2018,06,19,01,27,20.60
2018,06,19,01,28,20.60
2018,06,19,01,29,20.60
2018,06,19,01,30,20.60
2018,06,19,01,31,20.60
2018,06,19,01,32,20.50
2018,06,19,01,33,20.50
2018,06,19,01,34,20.50
2018,06,19,01,35,20.50
2018,06,19,01,36,20.50
2018,06,19,01,37,20.40
2018,06,19,01,38,20.40
2018,06,19,01,39,20.40
2018,06,19,01,40,20.40
2018,06,19,01,41,20.40
2018,06,19,01,42,20.40
2018,06,19,01,43,20.40
2018,06,19,01,44,20.40
2018,06,19,01,45,20.40
2018,06,19,01,46,20.40
2018,06,19,01,47,20.40
2018,06,19,01,48,20.40
2018,06,19,01,49,20.30
2018,06,19,01,50,20.30
2018,06,19,01,51,20.30
2018,06,19,01,52,20.20
2018,06,19,01,53,20.10
2018,06,19,01,54,20.10
2018,06,19,01,55,20.10
2018,06,19,01,56,20.10
2018,06,19,01,57,20.00
2018,06,19,01,58,20.00
2018,06,19,01,59,19.90
2018,06,19,02,00,19.90
2018,06,19,02,01,19.90
2018,06,19,02,02,19.80
2018,06,19,02,03,19.80
2018,06,19,02,04,19.70
2018,06,19,02,05,19.70
2018,06,19,02,06,19.70
2018,06,19,02,07,19.60
2018,06,19,02,08,19.60
2018,06,19,02,09,19.60
2018,06,19,02,10,19.50
2018,06,19,02,11,19.60
2018,06,19,02,12,19.60
2018,06,19,02,13,19.60
2018,06,19,02,14,19.50
2018,06,19,02,15,19.50
2018,06,19,02,16,19.50
2018,06,19,02,17,19.50
2018,06,19,02,18,19.40
2018,06,19,02,19,19.40
2018,06,19,02,20,19.40
2018,06,19,02,21,19.30
2018,06,19,02,22,19.20
2018,06,19,02,23,19.10
2018,06,19,02,24,18.90
2018,06,19,02,25,18.80
2018,06,19,02,26,18.60
2018,06,19,02,27,18.40
2018,06,19,02,28,18.20
2018,06,19,02,29,17.90
2018,06,19,02,30,17.70
2018,06,19,02,31,17.50
2018,06,19,02,32,17.40
2018,06,19,02,33,17.30
2018,06,19,02,34,17.20
2018,06,19,02,35,17.00
2018,06,19,02,36,16.90
2018,06,19,02,37,16.80
2018,06,19,02,38,16.70
2018,06,19,02,39,16.70
2018,06,19,02,40,16.60
2018,06,19,02,41,16.60
2018,06,19,02,42,16.50
2018,06,19,02,43,16.40
2018,06,19,02,44,16.40
2018,06,19,02,45,16.40
2018,06,19,02,46,16.30
2018,06,19,02,47,16.30
2018,06,19,02,48,16.20
2018,06,19,02,49,16.20
2018,06,19,02,50,16.10
2018,06,19,02,51,16.10
2018,06,19,02,52,16.00
2018,06,19,02,53,16.00
2018,06,19,02,54,16.00
2018,06,19,02,55,15.90
2018,06,19,02,56,15.90
2018,06,19,02,57,15.90
2018,06,19,02,58,15.90
2018,06,19,02,59,15.90
2018,06,19,03,00,15.90
2018,06,19,03,01,15.90
2018,06,19,03,02,15.90
2018,06,19,03,03,15.90
2018,06,19,03,04,15.80
2018,06,19,03,05,15.80
2018,06,19,03,06,15.80
2018,06,19,03,07,15.80
2018,06,19,03,08,15.80
2018,06,19,03,09,15.80
2018,06,19,03,10,15.80
2018,06,19,03,11,15.80
2018,06,19,03,12,15.70
2018,06,19,03,13,15.70
2018,06,19,03,14,15.70
2018,06,19,03,15,15.70
2018,06,19,03,16,15.70
2018,06,19,03,17,15.60
2018,06,19,03,18,15.60
2018,06,19,03,19,15.60
2018,06,19,03,20,15.60
2018,06,19,03,21,15.60
2018,06,19,03,22,15.60
2018,06,19,03,23,15.60
2018,06,19,03,24,15.60
2018,06,19,03,25,15.60
2018,06,19,03,26,15.50
2018,06,19,03,27,15.50
2018,06,19,03,28,15.50
2018,06,19,03,29,15.40
2018,06,19,03,30,15.40
2018,06,19,03,31,15.30
2018,06,19,03,32,15.30
2018,06,19,03,33,15.30
2018,06,19,03,37,15.20
2018,06,19,03,38,15.20
2018,06,19,03,39,15.20
2018,06,19,03,40,15.20
2018,06,19,03,41,15.20
2018,06,19,03,42,15.20
2018,06,19,03,43,15.10
2018,06,19,03,44,15.10
2018,06,19,03,45,15.10
2018,06,19,03,46,15.10
2018,06,19,03,47,15.10
2018,06,19,03,48,15.00
2018,06,19,03,49,15.00
2018,06,19,03,50,15.00
2018,06,19,03,51,15.00
2018,06,19,03,52,14.90
2018,06,19,03,53,14.90
2018,06,19,03,54,14.90
2018,06,19,03,55,14.90
2018,06,19,03,56,14.80
2018,06,19,03,57,14.80
2018,06,19,03,58,14.80
2018,06,19,03,59,14.80
2018,06,19,04,00,14.70
2018,06,19,04,01,14.70
2018,06,19,04,02,14.70
2018,06,19,04,03,14.70
2018,06,19,04,04,14.70
2018,06,19,04,05,14.70
2018,06,19,04,06,14.70
2018,06,19,04,07,14.60
2018,06,19,04,08,14.60
2018,06,19,04,09,14.60
2018,06,19,04,10,14.60
2018,06,19,04,11,14.50
2018,06,19,04,12,14.50
2018,06,19,04,13,14.50
2018,06,19,04,14,14.50
2018,06,19,04,15,14.50
2018,06,19,04,16,14.40
2018,06,19,04,17,14.40
2018,06,19,04,18,14.40
2018,06,19,04,19,14.40
2018,06,19,04,20,14.40
2018,06,19,04,21,14.40
2018,06,19,04,22,14.40
2018,06,19,04,23,14.30
2018,06,19,04,24,14.30
2018,06,19,04,25,14.30
2018,06,19,04,28,14.30
2018,06,19,04,29,14.30
2018,06,19,04,30,14.30
2018,06,19,04,31,14.30
2018,06,19,04,34,14.20
2018,06,19,04,35,14.20
2018,06,19,04,36,14.20
2018,06,19,04,37,14.10
2018,06,19,04,38,14.10
2018,06,19,04,39,14.10
2018,06,19,04,40,14.10
2018,06,19,04,41,14.00
2018,06,19,04,42,14.00
2018,06,19,04,43,14.00
2018,06,19,04,44,13.90
2018,06,19,04,45,13.90
2018,06,19,04,46,13.90
2018,06,19,04,47,13.90
2018,06,19,04,48,13.90
2018,06,19,04,49,13.80
2018,06,19,04,50,13.80
2018,06,19,04,51,13.80
2018,06,19,04,52,13.80
2018,06,19,04,53,13.80
2018,06,19,04,54,13.80
2018,06,19,04,55,13.80
2018,06,19,04,56,13.80
2018,06,19,04,57,13.80
2018,06,19,04,58,13.80
2018,06,19,04,59,13.70
2018,06,19,05,00,13.70
2018,06,19,05,01,13.70
2018,06,19,05,02,13.70
2018,06,19,05,03,13.70
2018,06,19,05,04,13.70
2018,06,19,05,05,13.70
2018,06,19,05,06,13.60
2018,06,19,05,07,13.60
2018,06,19,05,08,13.60
2018,06,19,05,09,13.60
2018,06,19,05,10,13.60
2018,06,19,05,11,13.60
2018,06,19,05,12,13.50
2018,06,19,05,13,13.50
2018,06,19,05,14,13.50
2018,06,19,05,15,13.50
2018,06,19,05,16,13.50
2018,06,19,05,17,13.40
2018,06,19,05,18,13.40
2018,06,19,05,19,13.40
2018,06,19,05,20,13.40
2018,06,19,05,21,13.40
2018,06,19,05,22,13.30
2018,06,19,05,23,13.30
2018,06,19,05,24,13.30
2018,06,19,05,25,13.30
2018,06,19,05,26,13.30
2018,06,19,05,27,13.20
2018,06,19,05,28,13.20
2018,06,19,05,29,13.20
2018,06,19,05,30,13.20
2018,06,19,05,31,13.10
2018,06,19,05,32,13.10
2018,06,19,05,33,13.10
2018,06,19,05,34,13.10
2018,06,19,05,35,13.00
2018,06,19,05,36,13.00
2018,06,19,05,37,12.90
2018,06,19,05,38,12.90
2018,06,19,05,39,12.90
2018,06,19,05,40,12.90
2018,06,19,05,41,12.90
2018,06,19,05,42,12.80
2018,06,19,05,43,12.80
2018,06,19,05,44,12.80
2018,06,19,05,45,12.80
2018,06,19,05,46,12.90
2018,06,19,05,47,12.90
2018,06,19,05,48,12.90
2018,06,19,05,49,12.90
2018,06,19,05,50,12.90
2018,06,19,05,51,12.90
2018,06,19,05,52,12.90
2018,06,19,05,53,12.90
2018,06,19,05,54,12.90
2018,06,19,05,55,13.00
2018,06,19,05,56,13.00
2018,06,19,05,57,13.00
2018,06,19,05,58,13.00
2018,06,19,06,03,13.00
2018,06,19,06,04,13.10
2018,06,19,06,05,13.10
2018,06,19,06,06,13.10
2018,06,19,06,07,13.10
2018,06,19,06,08,13.10
2018,06,19,06,09,13.10
2018,06,19,06,10,13.10
2018,06,19,06,11,13.10
2018,06,19,06,12,13.10
2018,06,19,06,13,13.10
2018,06,19,06,14,13.10
2018,06,19,06,15,13.10
2018,06,19,06,16,13.10
2018,06,19,06,17,13.10
2018,06,19,06,18,13.10
2018,06,19,06,19,13.20
2018,06,19,06,20,13.20
2018,06,19,06,21,13.20
2018,06,19,06,22,13.30
2018,06,19,06,23,13.30
2018,06,19,06,24,13.30
2018,06,19,06,25,13.30
2018,06,19,06,26,13.40
2018,06,19,06,27,13.40
2018,06,19,06,28,13.50
2018,06,19,06,29,13.50
2018,06,19,06,30,13.60
2018,06,19,06,31,13.70
2018,06,19,06,32,13.70
2018,06,19,06,33,13.80
2018,06,19,06,34,13.80
2018,06,19,06,35,13.80
2018,06,19,06,36,13.80
2018,06,19,06,37,13.80
2018,06,19,06,38,13.80
2018,06,19,06,39,13.90
2018,06,19,06,40,13.90
2018,06,19,06,41,13.90
2018,06,19,06,42,13.90
2018,06,19,06,43,13.90
2018,06,19,06,44,13.90
2018,06,19,06,45,13.90
2018,06,19,06,46,13.90
2018,06,19,06,47,14.00
2018,06,19,06,48,14.00
2018,06,19,06,49,14.00
2018,06,19,06,50,14.10
2018,06,19,06,51,14.10
2018,06,19,06,52,14.10
2018,06,19,06,53,14.10
2018,06,19,06,54,14.10
2018,06,19,06,55,14.10
2018,06,19,06,56,14.10
2018,06,19,06,57,14.10
2018,06,19,06,58,14.00
2018,06,19,06,59,14.00
2018,06,19,07,00,14.00
2018,06,19,07,01,13.90
2018,06,19,07,02,13.90
2018,06,19,07,03,13.90
2018,06,19,07,04,13.90
2018,06,19,07,05,13.80
2018,06,19,07,06,13.80
2018,06,19,07,07,13.70
2018,06,19,07,08,13.70
2018,06,19,07,09,13.60
2018,06,19,07,10,13.50
2018,06,19,07,11,13.50
2018,06,19,07,12,13.40
2018,06,19,07,13,13.30
2018,06,19,07,14,13.20
2018,06,19,07,15,13.20
2018,06,19,07,16,13.10
2018,06,19,07,17,13.10
2018,06,19,07,18,13.00
2018,06,19,07,19,13.00
2018,06,19,07,20,13.00
2018,06,19,07,21,12.90
2018,06,19,07,22,12.90
2018,06,19,07,23,12.80
2018,06,19,07,24,12.80
2018,06,19,07,25,12.80
2018,06,19,07,26,12.80
2018,06,19,07,27,12.80
2018,06,19,07,28,12.80
2018,06,19,07,29,12.80
2018,06,19,07,30,12.90
2018,06,19,07,31,12.90
2018,06,19,07,32,12.90
2018,06,19,07,33,12.90
2018,06,19,07,34,12.90
2018,06,19,07,35,12.90
2018,06,19,07,36,12.90
2018,06,19,07,37,12.90
2018,06,19,07,38,13.00
2018,06,19,07,39,13.00
2018,06,19,07,40,13.00
2018,06,19,07,41,12.90
2018,06,19,07,42,12.90
2018,06,19,07,43,12.90
2018,06,19,07,44,12.90
2018,06,19,07,45,12.90
2018,06,19,07,46,12.90
2018,06,19,07,47,13.00
2018,06,19,07,48,13.00
2018,06,19,07,49,13.10
2018,06,19,07,50,13.20
2018,06,19,07,51,13.20
2018,06,19,07,52,13.20
2018,06,19,07,53,13.30
2018,06,19,07,54,13.30
2018,06,19,07,55,13.40
2018,06,19,07,56,13.40
2018,06,19,07,57,13.50
2018,06,19,07,58,13.50
2018,06,19,07,59,13.60
2018,06,19,08,00,13.60
2018,06,19,08,01,13.60
2018,06,19,08,02,13.60
2018,06,19,08,03,13.60
2018,06,19,08,04,13.60
2018,06,19,08,05,13.60
2018,06,19,08,06,13.60
2018,06,19,08,07,13.50
2018,06,19,08,08,13.50
2018,06,19,08,09,13.50
2018,06,19,08,10,13.50
2018,06,19,08,11,13.60
2018,06,19,08,12,13.60
2018,06,19,08,13,13.60
2018,06,19,08,14,13.70
2018,06,19,08,15,13.70
2018,06,19,08,16,13.80
2018,06,19,08,17,13.80
2018,06,19,08,18,13.90
2018,06,19,08,19,14.00
2018,06,19,08,20,14.00
2018,06,19,08,21,14.10
2018,06,19,08,22,14.20
2018,06,19,08,23,14.20
2018,06,19,08,24,14.30
2018,06,19,08,25,14.40
2018,06,19,08,28,14.60
2018,06,19,08,29,14.60
2018,06,19,08,30,14.70
2018,06,19,08,31,14.80
2018,06,19,08,32,14.90
2018,06,19,08,33,15.00
2018,06,19,08,34,15.10
2018,06,19,08,35,15.20
2018,06,19,08,36,15.20
2018,06,19,08,37,15.20
2018,06,19,08,38,15.20
2018,06,19,08,39,15.10
2018,06,19,08,40,14.90
2018,06,19,08,41,14.80
2018,06,19,08,42,14.70
2018,06,19,08,43,14.70
2018,06,19,08,44,14.60
2018,06,19,08,45,14.60
2018,06,19,08,46,14.60
2018,06,19,08,47,14.60
2018,06,19,08,48,14.70
2018,06,19,08,49,14.70
2018,06,19,08,50,14.70
2018,06,19,08,51,14.80
2018,06,19,08,52,14.90
2018,06,19,08,53,14.90
2018,06,19,08,54,15.00
2018,06,19,08,55,15.00
2018,06,19,08,56,15.10
2018,06,19,08,57,15.10
2018,06,19,08,58,15.10
2018,06,19,08,59,15.10
2018,06,19,09,00,15.10
2018,06,19,09,01,15.10
2018,06,19,09,02,15.10
2018,06,19,09,03,15.00
2018,06,19,09,04,15.00
2018,06,19,09,05,15.10
2018,06,19,09,06,15.10
2018,06,19,09,07,15.10
2018,06,19,09,08,15.10
2018,06,19,09,09,15.10
2018,06,19,09,10,15.00
2018,06,19,09,11,14.90
2018,06,19,09,12,14.90
2018,06,19,09,13,14.90
2018,06,19,09,14,15.00
2018,06,19,09,15,15.10
2018,06,19,09,16,15.20
2018,06,19,09,17,15.40
2018,06,19,09,18,15.50
2018,06,19,09,19,15.60
2018,06,19,09,20,15.60
2018,06,19,09,21,15.60
2018,06,19,09,22,15.50
2018,06,19,09,23,15.40
2018,06,19,09,24,15.50
2018,06,19,09,25,15.60
2018,06,19,09,26,15.60
2018,06,19,09,27,15.70
2018,06,19,09,28,15.80
2018,06,19,09,29,15.80
2018,06,19,09,30,15.90
2018,06,19,09,31,15.90
2018,06,19,09,32,16.00
2018,06,19,09,33,16.10
2018,06,19,09,34,16.10
2018,06,19,09,35,16.00
2018,06,19,09,36,16.00
2018,06,19,09,37,16.10
2018,06,19,09,38,16.10
2018,06,19,09,39,16.10
2018,06,19,09,40,16.10
2018,06,19,09,41,16.20
2018,06,19,09,42,16.20
2018,06,19,09,43,16.20
2018,06,19,09,44,16.20
2018,06,19,09,45,16.10
2018,06,19,09,46,16.10
2018,06,19,09,47,16.20
2018,06,19,09,48,16.30
2018,06,19,09,49,16.20
2018,06,19,09,50,16.20
2018,06,19,09,51,16.20
2018,06,19,09,52,16.20
2018,06,19,09,53,16.20
2018,06,19,09,54,16.30
2018,06,19,09,55,16.40
2018,06,19,09,56,16.40
2018,06,19,09,57,16.40
2018,06,19,09,58,16.40
2018,06,19,09,59,16.50
2018,06,19,10,00,16.50
2018,06,19,10,01,16.60
2018,06,19,10,02,16.60
2018,06,19,10,03,16.60
2018,06,19,10,04,16.60
2018,06,19,10,05,16.60
2018,06,19,10,06,16.70
2018,06,19,10,07,16.70
2018,06,19,10,08,16.80
2018,06,19,10,09,16.90
2018,06,19,10,10,16.90
2018,06,19,10,11,17.00
2018,06,19,10,12,17.00
2018,06,19,10,13,16.90
2018,06,19,10,14,16.80
2018,06,19,10,15,16.80
2018,06,19,10,16,16.70
2018,06,19,10,17,16.70
2018,06,19,10,18,16.70
2018,06,19,10,19,16.70
2018,06,19,10,20,16.80
2018,06,19,10,21,16.90
2018,06,19,10,22,16.90
2018,06,19,10,23,17.00
2018,06,19,10,24,17.00
2018,06,19,10,25,17.10
2018,06,19,10,26,17.20
2018,06,19,10,27,17.30
2018,06,19,10,28,17.30
2018,06,19,10,29,17.20
2018,06,19,10,30,17.10
2018,06,19,10,31,17.00
2018,06,19,10,32,16.90
2018,06,19,10,33,16.90
2018,06,19,10,34,16.80
2018,06,19,10,35,16.80
2018,06,19,10,36,16.80
2018,06,19,10,37,16.70
2018,06,19,10,38,16.70
2018,06,19,10,39,16.60
2018,06,19,10,40,16.60
2018,06,19,10,41,16.60
2018,06,19,10,42,16.60
2018,06,19,10,43,16.50
2018,06,19,10,44,16.40
2018,06,19,10,45,16.20
2018,06,19,10,46,16.20
2018,06,19,10,47,16.20
2018,06,19,10,48,16.10
2018,06,19,10,49,16.20
2018,06,19,10,50,16.20
2018,06,19,10,51,16.30
2018,06,19,10,52,16.30
2018,06,19,10,53,16.40
2018,06,19,10,54,16.60
2018,06,19,10,55,16.70
2018,06,19,10,56,16.70
2018,06,19,10,57,16.70
2018,06,19,10,58,16.70
2018,06,19,10,59,16.70
2018,06,19,11,00,16.70
2018,06,19,11,01,16.70
2018,06,19,11,02,16.70
2018,06,19,11,03,16.70
2018,06,19,11,04,16.70
2018,06,19,11,05,16.70
2018,06,19,11,06,16.70
2018,06,19,11,07,16.70
2018,06,19,11,08,16.70
2018,06,19,11,09,16.70
2018,06,19,11,10,16.70
2018,06,19,11,11,16.70
2018,06,19,11,12,16.60
2018,06,19,11,13,16.60
2018,06,19,11,14,16.60
2018,06,19,11,15,16.50
2018,06,19,11,16,16.50
2018,06,19,11,17,16.50
2018,06,19,11,18,16.40
2018,06,19,11,19,16.50
2018,06,19,11,20,16.50
2018,06,19,11,21,16.60
2018,06,19,11,22,16.60
2018,06,19,11,23,16.50
2018,06,19,11,24,16.50
2018,06,19,11,25,16.40
2018,06,19,11,26,16.40
2018,06,19,11,27,16.40
2018,06,19,11,28,16.40
2018,06,19,11,29,16.40
2018,06,19,11,30,16.50
2018,06,19,11,31,16.60
2018,06,19,11,32,16.70
2018,06,19,11,33,16.80
2018,06,19,11,34,16.90
2018,06,19,11,35,17.00
2018,06,19,11,36,17.10
2018,06,19,11,37,17.10
2018,06,19,11,38,17.10
2018,06,19,11,39,16.90
2018,06,19,11,40,16.90
2018,06,19,11,41,16.90
2018,06,19,11,42,16.90
2018,06,19,11,43,17.00
2018,06,19,11,44,17.10
2018,06,19,11,45,17.20
2018,06,19,11,46,17.30
2018,06,19,11,47,17.40
2018,06,19,11,48,17.70
2018,06,19,11,49,17.90
2018,06,19,11,50,18.10
2018,06,19,11,51,18.30
2018,06,19,11,52,18.50
2018,06,19,11,53,18.50
2018,06,19,11,54,18.30
2018,06,19,11,55,18.20
2018,06,19,11,56,18.00
2018,06,19,11,57,18.00
2018,06,19,11,58,18.00
2018,06,19,11,59,18.10
2018,06,19,12,00,18.20
2018,06,19,12,01,18.30
2018,06,19,12,02,18.40
2018,06,19,12,03,18.50
2018,06,19,12,04,18.60
2018,06,19,12,05,18.70
2018,06,19,12,06,18.60
2018,06,19,12,07,18.70
2018,06,19,12,08,18.70
2018,06,19,12,09,18.70
2018,06,19,12,10,18.60
2018,06,19,12,11,18.60
2018,06,19,12,12,18.70
2018,06,19,12,13,18.70
2018,06,19,12,14,18.70
2018,06,19,12,15,18.80
2018,06,19,12,16,18.80
2018,06,19,12,17,18.90
2018,06,19,12,18,18.90
2018,06,19,12,19,18.80
2018,06,19,12,20,18.90
2018,06,19,12,21,18.90
2018,06,19,12,22,18.90
2018,06,19,12,23,18.90
2018,06,19,12,24,19.00
2018,06,19,12,25,19.20
2018,06,19,12,26,19.30
2018,06,19,12,27,19.40
2018,06,19,12,28,19.40
2018,06,19,12,29,19.40
2018,06,19,12,30,19.40
2018,06,19,12,31,19.50
2018,06,19,12,32,19.50
2018,06,19,12,33,19.40
2018,06,19,12,34,19.30
2018,06,19,12,35,19.40
2018,06,19,12,36,19.50
2018,06,19,12,37,19.60
2018,06,19,12,38,19.80
2018,06,19,12,39,19.80
2018,06,19,12,40,19.80
2018,06,19,12,41,19.80
2018,06,19,12,42,19.80
2018,06,19,12,43,19.60
2018,06,19,12,44,19.50
2018,06,19,12,45,19.50
2018,06,19,12,46,19.60
2018,06,19,12,47,19.60
2018,06,19,12,48,19.70
2018,06,19,12,49,19.70
2018,06,19,12,50,19.60
2018,06,19,12,51,19.60
2018,06,19,12,52,19.60
2018,06,19,12,53,19.40
2018,06,19,12,54,19.30
2018,06,19,12,55,19.10
2018,06,19,12,56,19.00
2018,06,19,12,57,18.90
2018,06,19,12,58,18.80
2018,06,19,12,59,18.80
2018,06,19,13,02,19.00
2018,06,19,13,03,19.00
2018,06,19,13,04,19.00
2018,06,19,13,05,18.90
2018,06,19,13,06,18.90
2018,06,19,13,07,18.90
2018,06,19,13,08,19.00
2018,06,19,13,09,19.00
2018,06,19,13,10,18.90
2018,06,19,13,11,18.90
2018,06,19,13,12,18.80
2018,06,19,13,13,18.90
2018,06,19,13,14,19.10
2018,06,19,13,15,19.20
2018,06,19,13,16,19.30
2018,06,19,13,17,19.30
2018,06,19,13,18,19.30
2018,06,19,13,19,19.30
2018,06,19,13,20,19.30
2018,06,19,13,21,19.20
2018,06,19,13,22,19.20
2018,06,19,13,23,19.30
2018,06,19,13,24,19.30
2018,06,19,13,25,19.20
2018,06,19,13,26,19.10
2018,06,19,13,27,19.10
2018,06,19,13,28,19.20
2018,06,19,13,29,19.20
2018,06,19,13,30,19.20
2018,06,19,13,31,19.20
2018,06,19,13,32,19.20
2018,06,19,13,33,19.10
2018,06,19,13,34,19.10
2018,06,19,13,35,19.00
2018,06,19,13,36,18.90
2018,06,19,13,37,18.80
2018,06,19,13,38,18.70
2018,06,19,13,39,18.60
2018,06,19,13,40,18.60
2018,06,19,13,41,18.60
2018,06,19,13,42,18.70
2018,06,19,13,43,18.90
2018,06,19,13,44,19.00
2018,06,19,13,45,19.20
2018,06,19,13,46,19.30
2018,06,19,13,47,19.30
2018,06,19,13,48,19.30
2018,06,19,13,49,19.20
2018,06,19,13,50,19.20
2018,06,19,13,51,19.30
2018,06,19,13,52,19.30
2018,06,19,13,53,19.20
2018,06,19,13,54,19.20
2018,06,19,13,55,19.20
2018,06,19,13,56,19.20
2018,06,19,13,57,19.10
2018,06,19,13,58,19.10
2018,06,19,13,59,19.20
2018,06,19,14,00,19.40
2018,06,19,14,03,19.30
2018,06,19,14,04,19.30
2018,06,19,14,05,19.30
2018,06,19,14,06,19.40
2018,06,19,14,07,19.50
2018,06,19,14,08,19.60
2018,06,19,14,09,19.50
2018,06,19,14,10,19.40
2018,06,19,14,11,19.30
2018,06,19,14,12,19.20
2018,06,19,14,13,19.30
2018,06,19,14,14,19.40
2018,06,19,14,15,19.50
2018,06,19,14,16,19.60
2018,06,19,14,17,19.60
2018,06,19,14,18,19.60
2018,06,19,14,19,19.70
2018,06,19,14,20,19.70
2018,06,19,14,21,19.70
2018,06,19,14,22,19.60
2018,06,19,14,23,19.70
2018,06,19,14,24,19.80
2018,06,19,14,25,19.90
2018,06,19,14,26,19.90
2018,06,19,14,27,19.90
2018,06,19,14,28,19.80
2018,06,19,14,29,19.70
2018,06,19,14,30,19.70
2018,06,19,14,31,19.70
2018,06,19,14,32,19.80
2018,06,19,14,33,19.80
2018,06,19,14,34,19.70
2018,06,19,14,35,19.80
2018,06,19,14,36,19.70
2018,06,19,14,37,19.70
2018,06,19,14,38,19.70
2018,06,19,14,39,19.50
2018,06,19,14,40,19.40
2018,06,19,14,41,19.30
2018,06,19,14,42,19.30
2018,06,19,14,43,19.40
2018,06,19,14,44,19.40
2018,06,19,14,45,19.50
2018,06,19,14,46,19.60
2018,06,19,14,47,19.70
2018,06,19,14,48,19.70
2018,06,19,14,49,19.50
2018,06,19,14,50,19.40
2018,06,19,14,51,19.30
2018,06,19,14,52,19.30
2018,06,19,14,53,19.20
2018,06,19,14,54,19.20
2018,06,19,14,55,19.30
2018,06,19,14,56,19.30
2018,06,19,14,57,19.30
2018,06,19,14,58,19.30
2018,06,19,14,59,19.40
2018,06,19,15,00,19.50
2018,06,19,15,01,19.60
2018,06,19,15,02,19.60
2018,06,19,15,03,19.60
2018,06,19,15,04,19.70
2018,06,19,15,05,19.80
2018,06,19,15,06,19.70
2018,06,19,15,07,19.60
2018,06,19,15,08,19.70
2018,06,19,15,09,19.80
2018,06,19,15,10,19.80
2018,06,19,15,11,19.80
2018,06,19,15,12,19.70
2018,06,19,15,13,19.70
2018,06,19,15,14,19.80
2018,06,19,15,15,19.70
2018,06,19,15,16,19.70
2018,06,19,15,17,19.70
2018,06,19,15,18,19.70
2018,06,19,15,19,19.70
2018,06,19,15,20,19.70
2018,06,19,15,21,19.80
2018,06,19,15,22,19.80
2018,06,19,15,23,19.90
2018,06,19,15,24,19.90
2018,06,19,15,25,19.90
2018,06,19,15,26,20.00
2018,06,19,15,27,20.00
2018,06,19,15,28,19.90
2018,06,19,15,29,19.90
2018,06,19,15,30,19.80
2018,06,19,15,31,19.80
2018,06,19,15,32,19.80
2018,06,19,15,33,19.80
2018,06,19,15,34,19.90
2018,06,19,15,35,19.80
2018,06,19,15,36,19.60
2018,06,19,15,37,19.50
2018,06,19,15,38,19.30
2018,06,19,15,39,19.10
2018,06,19,15,40,19.00
2018,06,19,15,41,18.90
2018,06,19,15,42,18.90
2018,06,19,15,43,19.00
2018,06,19,15,44,19.00
2018,06,19,15,45,19.10
2018,06,19,15,46,19.10
2018,06,19,15,47,19.20
2018,06,19,15,48,19.20
2018,06,19,15,49,19.20
2018,06,19,15,50,19.10
2018,06,19,15,51,18.90
2018,06,19,15,52,18.90
2018,06,19,15,53,18.90
2018,06,19,15,54,18.80
2018,06,19,15,55,18.70
2018,06,19,15,56,18.60
2018,06,19,15,57,18.50
2018,06,19,15,58,18.40
2018,06,19,15,59,18.30
2018,06,19,16,00,18.20
2018,06,19,16,01,18.20
2018,06,19,16,02,18.20
2018,06,19,16,03,18.20
2018,06,19,16,04,18.20
2018,06,19,16,05,18.30
2018,06,19,16,06,18.40
2018,06,19,16,07,18.50
2018,06,19,16,08,18.60
2018,06,19,16,09,18.70
2018,06,19,16,10,18.80
2018,06,19,16,11,18.90
2018,06,19,16,12,19.00
2018,06,19,16,13,19.00
2018,06,19,16,14,19.20
2018,06,19,16,15,19.40
2018,06,19,16,16,19.40
2018,06,19,16,17,19.40
2018,06,19,16,18,19.40
2018,06,19,16,19,19.20
2018,06,19,16,20,19.20
2018,06,19,16,21,19.30
2018,06,19,16,22,19.30
2018,06,19,16,23,19.30
2018,06,19,16,24,19.30
2018,06,19,16,25,19.20
2018,06,19,16,26,19.20
2018,06,19,16,27,19.20
2018,06,19,16,28,19.20
2018,06,19,16,29,19.30
2018,06,19,16,30,19.30
2018,06,19,16,31,19.30
2018,06,19,16,32,19.30
2018,06,19,16,33,19.40
2018,06,19,16,34,19.30
2018,06,19,16,35,19.20
2018,06,19,16,36,19.20
2018,06,19,16,37,19.30
2018,06,19,16,38,19.40
2018,06,19,16,39,19.40
2018,06,19,16,40,19.50
2018,06,19,16,41,19.60
2018,06,19,16,42,19.60
2018,06,19,16,43,19.70
2018,06,19,16,44,19.60
2018,06,19,16,45,19.60
2018,06,19,16,46,19.40
2018,06,19,16,47,19.30
2018,06,19,16,48,19.20
2018,06,19,16,49,19.20
2018,06,19,16,50,19.20
2018,06,19,16,51,19.30
2018,06,19,16,52,19.30
2018,06,19,16,53,19.40
2018,06,19,16,54,19.40
2018,06,19,16,55,19.40
2018,06,19,16,56,19.40
2018,06,19,16,57,19.30
2018,06,19,16,58,19.20
2018,06,19,16,59,19.20
2018,06,19,17,00,19.20
2018,06,19,17,01,19.10
2018,06,19,17,02,19.00
2018,06,19,17,03,19.00
2018,06,19,17,04,18.90
2018,06,19,17,05,18.90
2018,06,19,17,06,18.70
2018,06,19,17,07,18.60
2018,06,19,17,08,18.60
2018,06,19,17,09,18.60
2018,06,19,17,10,18.70
2018,06,19,17,11,18.70
2018,06,19,17,12,18.80
2018,06,19,17,13,18.90
2018,06,19,17,14,18.90
2018,06,19,17,15,18.90
2018,06,19,17,16,18.90
2018,06,19,17,17,18.90
2018,06,19,17,18,18.80
2018,06,19,17,19,18.80
2018,06,19,17,20,18.80
2018,06,19,17,21,18.80
2018,06,19,17,22,18.80
2018,06,19,17,23,18.80
2018,06,19,17,24,18.90
2018,06,19,17,25,19.00
2018,06,19,17,26,19.10
2018,06,19,17,27,19.40
2018,06,19,17,28,19.60
2018,06,19,17,29,19.80
2018,06,19,17,30,19.90
2018,06,19,17,31,19.90
2018,06,19,17,32,20.00
2018,06,19,17,33,20.10
2018,06,19,17,34,20.20
2018,06,19,17,35,20.20
2018,06,19,17,36,20.20
2018,06,19,17,37,20.20
2018,06,19,17,38,20.30